Location: Unspecified
(52.4292°N, 19.3359°E)
Time: 20:07:09
(UTC+02:00)

Tiros 1 - Pass Details

Date: 25 May 2024
Orbit: 624 x 657 km, 48.4° (Epoch: 15 June)

Event Time Altitude Azimuth Distance (km) Brightness Sun altitude
Rises 16:45:01 0° 277° (W) 2,984 11.5 33.9°
Reaches altitude 10° 16:47:43 10° 264° (W) 2,069 11.2 33.5°
Maximum altitude 16:51:31 24° 211° (SSW) 1,352 9.6 33.0°
Drops below altitude 10° 16:55:19 10° 158° (SSE) 2,055 9.7 32.4°
Sets 16:57:59 0° 144° (SE) 2,959 10.3 32.0°
